DW8300 Weather Reports


time (UTC)temp
C
wind
direction
speed
KPH
gust
KPH
rain 1hr
cm
rain 24hr
cm
rain mn
cm
humidity
%
barometer
mb
20260506113928 15 155 0.0 0.0 0.20 0.10 0.10 85 1009.0
20260506113436 16 217 0.0 0.0 0.20 0.10 0.10 84 1009.0
20260506112927 16 217 0.0 0.0 0.30 0.08 0.08 83 1009.2
20260506112429 16 214 0.0 0.0 0.15 0.05 0.05 82 1009.1
20260506111911 16 221 0.0 1.6 0.00 0.03 0.03 80 1009.1
20260506111401 16 219 0.0 0.0 0.00 0.03 0.03 80 1008.9
20260506110900 16 250 0.0 0.0 0.00 0.00 0.00 79 1008.6
20260506110410 16 250 0.0 0.0 0.00 0.00 0.00 79 1008.6
20260506105905 16 264 0.0 0.0 0.00 0.00 0.00 78 1008.5
20260506104729 16 249 0.0 0.0 0.00 0.00 0.00 77 1008.4
20260506104228 16 250 0.0 0.0 0.00 0.00 0.00 77 1008.4
20260506103720 16 193 0.0 0.0 0.00 0.00 0.00 76 1008.3
20260506103219 16 240 0.0 0.0 0.00 0.00 0.00 76 1008.3
20260506102704 17 197 0.0 0.0 0.00 0.00 0.00 75 1008.2
20260506102202 17 178 0.0 0.0 0.00 0.00 0.00 75 1008.1
20260506101648 17 213 0.0 1.6 0.00 0.00 0.00 74 1008.0
20260506101146 17 219 0.0 1.6 0.00 0.00 0.00 73 1008.1
20260506100630 17 222 0.0 1.6 0.00 0.00 0.00 73 1008.0
20260506100121 17 225 0.0 1.6 0.00 0.00 0.00 72 1008.0
20260506095624 17 194 0.0 1.6 0.00 0.00 0.00 70 1007.9
20260506094506 18 230 0.0 0.0 0.00 0.00 0.00 68 1007.9
20260506093953 18 173 0.0 3.2 0.00 0.00 0.00 67 1007.9
20260506093449 18 217 0.0 1.6 0.00 0.00 0.00 66 1007.9
20260506092328 18 238 0.0 4.8 0.00 0.00 0.00 65 1007.9
20260506091834 18 232 0.0 4.8 0.00 0.00 0.00 65 1008.0
20260506091331 18 174 0.0 0.0 0.00 0.00 0.00 65 1007.9
20260506090218 18 265 0.0 6.4 0.00 0.00 0.00 64 1007.9
20260506085042 18 207 0.0 0.0 0.00 0.00 0.00 64 1008.0
20260506084548 18 194 0.0 1.6 0.00 0.00 0.00 64 1008.1
20260506083413 18 237 0.0 1.6 0.00 0.00 0.00 63 1008.1
20260506082904 18 225 0.0 16.1 0.00 0.00 0.00 63 1008.2
20260506082411 18 214 0.0 16.1 0.00 0.00 0.00 63 1008.3
20260506081903 18 185 0.0 14.5 0.00 0.00 0.00 63 1008.2
20260506081405 18 161 0.0 1.6 0.00 0.00 0.00 63 1008.2
20260506080913 18 233 0.0 4.8 0.00 0.00 0.00 63 1008.2
20260506080357 18 230 0.0 1.6 0.00 0.00 0.00 62 1008.2
20260506073301 18 221 0.0 9.7 0.00 0.00 0.00 61 1008.2
20260506072746 18 194 0.0 4.8 0.00 0.00 0.00 60 1008.1
20260506072249 18 204 0.0 1.6 0.00 0.00 0.00 60 1008.3
20260506071730 18 225 0.0 3.2 0.00 0.00 0.00 60 1008.2
20260506070620 19 238 0.0 1.6 0.00 0.00 0.00 59 1008.3
20260506070114 19 211 0.0 0.0 0.00 0.00 0.00 59 1008.2
20260506062045 19 220 0.0 0.0 0.00 0.00 0.00 58 1008.8
20260506061553 19 218 0.0 1.6 0.00 0.00 0.00 57 1008.9
20260506061047 19 236 0.0 1.6 0.00 0.00 0.00 57 1008.9
20260506060535 19 191 0.0 0.0 0.00 0.00 0.00 57 1009.0
20260506051006 19 200 0.0 0.0 0.00 0.00 0.00 54 1009.4
20260506050511 19 186 0.0 0.0 0.00 0.00 0.00 53 1009.5
20260506044812 19 186 0.0 0.0 0.00 0.00 0.00 52 1009.6
20260506044259 19 208 0.0 3.2 0.00 0.00 0.00 51 1009.6
20260506043139 19 188 0.0 0.0 0.00 0.00 0.00 50 1009.6
20260506042042 19 174 0.0 0.0 0.00 0.00 0.00 50 1009.5
20260506041524 19 174 0.0 0.0 0.00 0.00 0.00 50 1009.5
20260506041005 19 174 0.0 0.0 0.00 0.00 0.00 50 1009.6
20260506040454 19 175 0.0 0.0 0.00 0.00 0.00 49 1009.5
20260506035939 20 175 0.0 0.0 0.00 0.00 0.00 49 1009.5
20260506035427 20 175 0.0 0.0 0.00 0.00 0.00 48 1009.5
20260506034909 20 175 0.0 0.0 0.00 0.00 0.00 48 1009.5
20260506034417 20 175 0.0 0.0 0.00 0.00 0.00 47 1009.4
20260506033859 20 175 0.0 0.0 0.00 0.00 0.00 47 1009.5
20260506033345 20 175 0.0 0.0 0.00 0.00 0.00 46 1009.5
20260506032828 20 172 0.0 0.0 0.00 0.00 0.00 47 1009.4
20260506032316 20 170 0.0 0.0 0.00 0.00 0.00 47 1009.4
20260506031822 20 224 0.0 0.0 0.00 0.00 0.00 47 1009.3
20260506031317 20 128 0.0 0.0 0.00 0.00 0.00 47 1009.3
20260506030152 20 121 0.0 0.0 0.00 0.00 0.00 46 1009.3
20260506025030 20 248 0.0 0.0 0.00 0.00 0.00 45 1009.5
20260506024530 20 250 0.0 0.0 0.00 0.00 0.00 45 1009.4
20260506024032 20 250 0.0 0.0 0.00 0.00 0.00 44 1009.4
20260506023514 20 250 0.0 0.0 0.00 0.00 0.00 44 1009.4
20260506022959 20 250 0.0 1.6 0.00 0.00 0.00 43 1009.4
20260506022457 21 180 0.0 0.0 0.00 0.00 0.00 43 1009.4
20260506021946 21 178 0.0 0.0 0.00 0.00 0.00 43 1009.4
20260506021443 21 201 0.0 0.0 0.00 0.00 0.00 42 1009.4
20260506020315 21 239 0.0 0.0 0.00 0.00 0.00 41 1009.5
20260506015814 21 239 0.0 0.0 0.00 0.00 0.00 40 1009.5
20260506015311 21 240 0.0 0.0 0.00 0.00 0.00 40 1009.4
20260506014806 21 244 0.0 0.0 0.00 0.00 0.00 40 1009.3
20260506014301 21 243 0.0 0.0 0.00 0.00 0.00 39 1009.3
20260506013759 21 236 0.0 0.0 0.00 0.00 0.00 38 1009.2
20260506013251 21 207 0.0 0.0 0.00 0.00 0.00 38 1009.2
20260506012747 21 204 0.0 1.6 0.00 0.00 0.00 38 1009.1
20260506012253 22 202 0.0 1.6 0.00 0.00 0.00 37 1009.0
20260506011802 22 247 0.0 1.6 0.00 0.00 0.00 36 1009.0
20260506011243 22 248 0.0 1.6 0.00 0.00 0.00 37 1008.9
20260506010739 22 211 0.0 0.0 0.00 0.00 0.00 36 1008.9
20260506010248 22 212 0.0 0.0 0.00 0.00 0.00 36 1008.8
20260506005751 22 213 0.0 1.6 0.00 0.00 0.00 36 1008.8
20260506005251 22 251 0.0 0.0 0.00 0.00 0.00 35 1008.8
20260506004749 22 219 0.0 8.0 0.00 0.00 0.00 35 1008.8
20260506004240 22 175 0.0 8.0 0.00 0.00 0.00 35 1008.7
20260506003731 22 214 0.0 0.0 0.00 0.00 0.00 35 1008.6
20260506003235 22 226 0.0 1.6 0.00 0.00 0.00 35 1008.5
20260506002049 23 222 0.0 12.9 0.00 0.00 0.00 35 1008.4
20260506001531 23 228 0.0 4.8 0.00 0.00 0.00 36 1008.4
20260506001012 23 79 0.0 4.8 0.00 0.00 0.00 35 1008.2
20260506000509 23 207 0.0 4.8 0.00 0.00 0.00 34 1008.3
20260505235957 23 218 0.0 1.6 0.00 0.00 0.00 35 1008.2
20260505234849 23 225 0.0 6.4 0.00 0.00 0.00 35 1008.2
20260505234345 24 216 0.0 6.4 0.00 0.00 0.00 34 1008.2
20260505233850 24 178 0.0 6.4 0.00 0.00 0.00 35 1008.1
20260505233332 24 196 0.0 1.6 0.00 0.00 0.00 35 1008.2
20260505232817 24 197 0.0 1.6 0.00 0.00 0.00 34 1008.1
20260505232322 24 244 0.0 3.2 0.00 0.00 0.00 35 1008.2
20260505231810 25 228 0.0 3.2 0.00 0.00 0.00 34 1008.2
20260505231304 25 211 0.0 0.0 0.00 0.00 0.00 34 1008.1
20260505230749 25 210 0.0 12.9 0.00 0.00 0.00 34 1008.0
20260505230236 25 151 0.0 8.0 0.00 0.00 0.00 33 1008.1
20260505225723 25 173 0.0 12.9 0.00 0.00 0.00 33 1008.0
20260505225229 25 221 0.0 12.9 0.00 0.00 0.00 32 1008.0
20260505224110 25 222 0.0 12.9 0.00 0.00 0.00 33 1008.1
20260505222329 25 142 0.0 11.3 0.00 0.00 0.00 34 1008.3
20260505221819 25 221 0.0 11.3 0.00 0.00 0.00 33 1008.2
20260505221323 25 217 0.0 9.7 0.00 0.00 0.00 33 1008.2
20260505220831 25 213 1.6 14.5 0.00 0.00 0.00 32 1008.2
20260505220313 25 228 0.0 14.5 0.00 0.00 0.00 33 1008.3
20260505215820 26 207 0.0 14.5 0.00 0.00 0.00 32 1008.2
20260505215330 26 181 0.0 14.5 0.00 0.00 0.00 34 1008.2
20260505214831 25 129 0.0 1.6 0.00 0.00 0.00 35 1008.2
20260505214323 25 236 0.0 3.2 0.00 0.00 0.00 34 1008.2
20260505213812 25 244 0.0 1.6 0.00 0.00 0.00 35 1008.2
20260505213315 25 217 0.0 14.5 0.00 0.00 0.00 35 1008.1
20260505212759 25 209 0.0 17.7 0.00 0.00 0.00 34 1008.1
20260505212308 26 158 1.6 17.7 0.00 0.00 0.00 35 1008.2
20260505211814 26 222 1.6 17.7 0.00 0.00 0.00 34 1008.1
20260505211321 26 234 1.6 17.7 0.00 0.00 0.00 35 1008.1
20260505210802 26 252 1.6 12.9 0.00 0.00 0.00 36 1008.0
20260505205643 26 201 1.6 20.9 0.00 0.00 0.00 35 1008.0
20260505205126 26 169 1.6 20.9 0.00 0.00 0.00 34 1007.9
20260505204624 26 208 1.6 20.9 0.00 0.00 0.00 36 1008.0
20260505204105 27 188 1.6 20.9 0.00 0.00 0.00 36 1008.0
20260505203558 27 248 0.0 16.1 0.00 0.00 0.00 36 1007.9
20260505203100 27 213 0.0 11.3 0.00 0.00 0.00 35 1007.8
20260505201930 27 196 1.6 14.5 0.00 0.00 0.00 35 1007.9
20260505201420 27 160 0.0 14.5 0.00 0.00 0.00 35 1008.0
20260505200913 26 236 0.0 14.5 0.00 0.00 0.00 37 1007.9
20260505200412 26 140 1.6 14.5 0.00 0.00 0.00 37 1007.9
20260505195909 26 212 0.0 14.5 0.00 0.00 0.00 37 1008.0
20260505195401 26 205 0.0 9.7 0.00 0.00 0.00 35 1008.1
20260505194854 26 194 0.0 9.7 0.00 0.00 0.00 37 1008.1
20260505194349 26 190 1.6 11.3 0.00 0.00 0.00 37 1008.1
20260505193848 27 202 0.0 11.3 0.00 0.00 0.00 37 1008.3
20260505193354 27 207 0.0 11.3 0.00 0.00 0.00 37 1008.2
20260505192846 26 143 1.6 11.3 0.00 0.00 0.00 36 1008.3
20260505192332 26 234 1.6 22.5 0.00 0.00 0.00 37 1008.4
20260505191831 27 218 0.0 22.5 0.00 0.00 0.00 38 1008.5
20260505191311 26 157 0.0 22.5 0.00 0.00 0.00 39 1008.5
20260505190123 26 122 0.0 11.3 0.00 0.00 0.00 37 1008.9
20260505185633 26 214 0.0 11.3 0.00 0.00 0.00 38 1008.9
20260505183858 26 227 0.0 12.9 0.00 0.00 0.00 38 1009.1
20260505183344 26 230 1.6 12.9 0.00 0.00 0.00 38 1009.1
20260505182846 26 232 0.0 8.0 0.00 0.00 0.00 38 1009.3
20260505181702 26 210 1.6 16.1 0.00 0.00 0.00 39 1009.4
20260505181202 26 178 1.6 16.1 0.00 0.00 0.00 38 1009.5
20260505180703 26 234 1.6 16.1 0.00 0.00 0.00 37 1009.5
20260505180206 26 146 0.0 12.9 0.00 0.00 0.00 40 1009.5
20260505175716 26 213 0.0 17.7 0.00 0.00 0.00 40 1009.6
20260505174614 26 243 0.0 17.7 0.00 0.00 0.00 39 1009.8
20260505174112 26 227 1.6 17.7 0.00 0.00 0.00 41 1009.8
20260505173618 26 163 1.6 12.9 0.00 0.00 0.00 38 1009.8
20260505173106 26 202 1.6 12.9 0.00 0.00 0.00 42 1009.8
20260505172609 26 232 0.0 11.3 0.00 0.00 0.00 39 1009.9
20260505172100 26 218 0.0 8.0 0.00 0.00 0.00 41 1009.9
20260505170928 25 207 0.0 0.0 0.00 0.00 0.00 42 1010.0
20260505170427 25 236 0.0 3.2 0.00 0.00 0.00 40 1010.0
20260505165922 25 219 0.0 4.8 0.00 0.00 0.00 39 1010.2
20260505165411 25 221 0.0 12.9 0.00 0.00 0.00 41 1010.3
20260505164913 25 249 1.6 14.5 0.00 0.00 0.00 38 1010.4
20260505163738 25 226 3.2 14.5 0.00 0.00 0.00 38 1010.6
20260505163229 25 244 1.6 22.5 0.00 0.00 0.00 41 1010.7
20260505162106 25 233 3.2 22.5 0.00 0.00 0.00 41 1010.8
20260505161605 25 221 3.2 22.5 0.00 0.00 0.00 43 1011.0
20260505161055 25 209 1.6 17.7 0.00 0.00 0.00 40 1010.9
20260505160602 25 237 1.6 17.7 0.00 0.00 0.00 42 1011.1
20260505153341 24 218 3.2 19.3 0.00 0.00 0.00 42 1011.2
20260505152847 24 238 3.2 19.3 0.00 0.00 0.00 41 1011.3
20260505152329 24 227 1.6 17.7 0.00 0.00 0.00 41 1011.3
20260505151831 24 219 4.8 17.7 0.00 0.00 0.00 45 1011.2
20260505151315 24 215 3.2 17.7 0.00 0.00 0.00 44 1011.2
20260505150823 23 245 0.0 12.9 0.00 0.00 0.00 46 1011.2
20260505150317 23 247 0.0 12.9 0.00 0.00 0.00 46 1011.2
20260505140454 20 232 0.0 1.6 0.00 0.00 0.00 60 1011.3
20260505124233 15 219 0.0 0.0 0.00 0.00 0.00 73 1012.0
20260505123728 15 219 0.0 0.0 0.00 0.00 0.00 75 1012.1
20260505123218 14 219 0.0 0.0 0.00 0.00 0.00 75 1012.2
20260505122722 14 218 0.0 0.0 0.00 0.00 0.00 75 1012.2
20260505121552 13 218 0.0 0.0 0.00 0.00 0.00 76 1012.1
20260505121050 13 219 0.0 0.0 0.00 0.00 0.00 75 1012.1
20260505120543 13 219 0.0 3.2 0.00 0.00 0.00 76 1012.1
20260505120052 13 221 0.0 3.2 0.00 0.00 0.00 77 1012.3
20260505115550 13 173 0.0 0.0 0.00 0.00 0.00 77 1012.2
20260505115030 13 141 0.0 0.0 0.00 0.00 0.00 78 1012.1
20260505114519 13 141 0.0 0.0 0.00 0.00 0.00 79 1012.1